Location: *
(55.5817°S, 142.4781°W)
Time: 07:27:14
(UTC+00:00)

CZ-4C R/B - Pass Details

Date: 29 April 2025
Orbit: 502 x 1481 km, 63.4° (Epoch: 23 May)

Event Time Altitude Azimuth Distance (km) Brightness Sun altitude
Rises 13:47:55 0° 353° (N) 4,531 5.8 -26.0°
Reaches altitude 10° 13:51:21 10° 1° (N) 3,483 5.3 -25.5°
Maximum altitude 13:58:42 33° 60° (ENE) 1,980 4.5 -24.5°
Drops below altitude 10° 14:04:58 10° 120° (ESE) 2,953 5.9 -23.6°
Sets 14:07:38 0° 129° (SE) 3,765 6.5 -23.3°
